GW1476 Weather Reports


Display with metric or nautical units.
time (UTC)temp
F
wind
direction
speed
MPH
gust
MPH
rain 1hr
in
rain 24hr
in
rain mn
in
humidity
%
barometer
mb
20260505054545 53 248 2.0 2.0 0.00 0.00 0.00 99 1013.2
20260505053930 53 180 1.0 1.0 0.00 0.00 0.00 99 1013.2
20260505053309 53 203 1.0 3.0 0.00 0.00 0.00 99 1013.2
20260505051537 54 270 0.0 2.0 0.00 0.00 0.00 99 1013.2
20260505050326 54 180 1.0 1.0 0.00 0.00 0.00 99 1013.2
20260505041526 55 293 0.0 1.0 0.00 0.00 0.00 99 1012.5
20260505040919 55 293 1.0 1.0 0.00 0.00 0.00 99 1012.5
20260505035138 56 248 1.0 2.0 0.00 0.00 0.00 99 1012.5
20260505034556 56 293 0.0 1.0 0.00 0.00 0.00 99 1012.1
20260505033913 56 180 0.0 2.0 0.00 0.00 0.00 99 1012.5
20260505033320 56 225 0.0 0.0 0.00 0.00 0.00 98 1012.5
20260505032719 56 180 1.0 1.0 0.00 0.00 0.00 98 1012.1
20260505032128 57 158 0.0 1.0 0.00 0.00 0.00 98 1012.1
20260505031514 57 23 0.0 1.0 0.00 0.00 0.00 97 1012.1
20260505030941 57 270 0.0 2.0 0.00 0.00 0.00 97 1012.1
20260505030344 57 248 1.0 2.0 0.00 0.00 0.00 97 1012.1
20260505025743 57 225 1.0 1.0 0.00 0.00 0.00 96 1012.1
20260505025129 58 225 0.0 1.0 0.00 0.00 0.00 95 1012.1
20260505024538 58 180 0.0 1.0 0.00 0.00 0.00 94 1012.1
20260505022123 59 135 0.0 2.0 0.00 0.00 0.00 91 1012.1
20260505021512 59 248 2.0 2.0 0.00 0.00 0.00 91 1012.1
20260505020926 59 270 0.0 1.0 0.00 0.00 0.00 91 1012.1
20260505020317 60 248 0.0 0.0 0.00 0.00 0.00 91 1012.1
20260505015154 61 248 1.0 1.0 0.00 0.00 0.00 88 1012.1
20260505014530 61 203 1.0 2.0 0.00 0.00 0.00 88 1012.1
20260505013918 62 180 1.0 2.0 0.00 0.00 0.00 87 1012.1
20260505013318 62 180 0.0 2.0 0.00 0.00 0.00 86 1012.1
20260505012711 62 270 0.0 0.0 0.00 0.00 0.00 84 1012.1
20260505012147 63 203 1.0 2.0 0.00 0.00 0.00 84 1012.1
20260505011536 63 180 1.0 2.0 0.00 0.00 0.00 82 1011.8
20260505010914 64 225 0.0 1.0 0.00 0.00 0.00 81 1011.8
20260505010331 64 225 0.0 2.0 0.00 0.00 0.00 80 1011.8
20260505005751 65 225 0.0 0.0 0.00 0.00 0.00 79 1011.8
20260505005121 65 180 2.0 2.0 0.00 0.00 0.00 78 1011.8
20260505004534 66 203 2.0 2.0 0.00 0.00 0.00 77 1011.5
20260505003929 67 270 2.0 2.0 0.00 0.00 0.00 76 1011.5
20260505003354 67 203 1.0 1.0 0.00 0.00 0.00 74 1011.5
20260505002111 68 158 3.0 3.0 0.00 0.00 0.00 72 1011.8
20260505001513 70 203 2.0 3.0 0.00 0.00 0.00 69 1011.8
20260505000916 70 180 2.0 2.0 0.00 0.00 0.00 67 1011.8
20260505000318 73 203 3.0 3.0 0.00 0.00 0.00 61 1011.8
20260504235715 72 158 3.0 4.0 0.00 0.00 0.00 60 1011.5
20260504234528 75 90 1.0 2.0 0.00 0.00 0.00 57 1011.5
20260504233933 78 338 2.0 4.0 0.00 0.00 0.00 51 1011.5
20260504233341 78 270 3.0 4.0 0.00 0.00 0.00 51 1011.5
20260504232715 79 180 6.0 6.0 0.00 0.00 0.00 49 1011.5
20260504232153 80 315 4.0 4.0 0.00 0.00 0.00 48 1011.5
20260504231519 79 180 2.0 4.0 0.00 0.00 0.00 49 1011.5
20260504230952 79 315 2.0 6.0 0.00 0.00 0.00 49 1011.5
20260504225714 79 203 2.0 3.0 0.00 0.00 0.00 51 1011.5
20260504225147 80 338 1.0 6.0 0.00 0.00 0.00 50 1011.5
20260504224511 80 180 3.0 4.0 0.00 0.00 0.00 50 1011.8
20260504223935 80 203 3.0 4.0 0.00 0.00 0.00 49 1011.5
20260504223316 81 270 3.0 3.0 0.00 0.00 0.00 48 1011.8
20260504222753 81 180 2.0 7.0 0.00 0.00 0.00 49 1011.5
20260504222112 81 68 1.0 5.0 0.00 0.00 0.00 50 1011.5
20260504221522 83 225 5.0 6.0 0.00 0.00 0.00 47 1011.8
20260504220927 84 293 1.0 4.0 0.00 0.00 0.00 46 1011.5
20260504220316 83 23 5.0 5.0 0.00 0.00 0.00 47 1011.5
20260504215123 82 0 6.0 6.0 0.00 0.00 0.00 48 1011.8
20260504214552 81 270 2.0 4.0 0.00 0.00 0.00 49 1011.8
20260504213950 81 113 4.0 4.0 0.00 0.00 0.00 49 1011.8
20260504211527 81 0 5.0 10.0 0.00 0.00 0.00 48 1012.1
20260504210950 80 180 4.0 7.0 0.00 0.00 0.00 51 1011.8
20260504210330 81 45 6.0 11.0 0.00 0.00 0.00 49 1011.8
20260504205734 80 68 2.0 4.0 0.00 0.00 0.00 50 1011.8
20260504205140 80 248 3.0 11.0 0.00 0.00 0.00 52 1012.1
20260504204542 80 203 5.0 8.0 0.00 0.00 0.00 52 1012.1
20260504203931 79 203 3.0 5.0 0.00 0.00 0.00 53 1012.1
20260504202734 80 248 2.0 3.0 0.00 0.00 0.00 53 1012.1
20260504202114 79 0 2.0 4.0 0.00 0.00 0.00 54 1012.5
20260504201541 78 180 2.0 3.0 0.00 0.00 0.00 54 1012.5
20260504200320 77 203 3.0 5.0 0.00 0.00 0.00 56 1012.8
20260504195752 78 180 3.0 3.0 0.00 0.00 0.00 58 1012.8
20260504195124 77 113 1.0 3.0 0.00 0.00 0.00 60 1013.2
20260504194552 76 23 4.0 4.0 0.00 0.00 0.00 62 1013.2
20260504193936 75 23 2.0 2.0 0.00 0.00 0.00 63 1013.2
20260504193337 73 225 1.0 2.0 0.00 0.00 0.00 68 1013.5
20260504192722 72 23 2.0 2.0 0.00 0.00 0.00 70 1013.8
20260504192139 71 225 0.0 3.0 0.00 0.00 0.00 70 1013.8
20260504191533 69 203 3.0 3.0 0.00 0.00 0.00 77 1014.2
20260504190949 69 0 4.0 4.0 0.00 0.00 0.00 71 1014.2
20260504185733 71 0 4.0 6.0 0.00 0.00 0.00 60 1014.5
20260504184535 72 0 3.0 7.0 0.00 0.00 0.00 61 1013.8
20260504183943 74 270 3.0 7.0 0.00 0.00 0.00 56 1013.5
20260504183329 74 225 3.0 4.0 0.00 0.00 0.00 57 1013.8
20260504182741 74 248 2.0 3.0 0.00 0.00 0.00 57 1013.5
20260504182142 75 135 2.0 6.0 0.00 0.00 0.00 55 1013.5
20260504181512 76 270 4.0 6.0 0.00 0.00 0.00 55 1013.5
20260504180923 77 248 4.0 6.0 0.00 0.00 0.00 55 1013.5
20260504180320 76 225 1.0 2.0 0.00 0.00 0.00 54 1013.5
20260504175748 76 225 4.0 4.0 0.00 0.00 0.00 55 1013.5
20260504174534 75 315 9.0 9.0 0.00 0.00 0.00 54 1013.8
20260504173931 75 113 3.0 6.0 0.00 0.00 0.00 55 1013.8
20260504172713 74 338 4.0 4.0 0.00 0.00 0.00 55 1014.2
20260504172134 74 225 6.0 6.0 0.00 0.00 0.00 56 1014.2
20260504171554 72 270 4.0 8.0 0.00 0.00 0.00 58 1014.2
20260504170919 72 158 4.0 7.0 0.00 0.00 0.00 60 1014.5
20260504170335 72 248 2.0 5.0 0.00 0.00 0.00 63 1014.5
20260504160347 65 0 3.0 3.0 0.00 0.00 0.00 71 1016.5
20260504141236 61 293 0.0 3.0 0.00 0.00 0.00 71 1016.9
20260504140653 61 135 0.0 3.0 0.00 0.00 0.00 69 1016.9
20260504130633 53 248 0.0 3.0 0.00 0.00 0.00 83 1016.9
20260504110627 42 225 0.0 0.0 0.00 0.00 0.00 99 1016.2
20260504081814 43 203 0.0 0.0 0.00 0.00 0.00 99 1017.2
20260504081216 42 203 0.0 0.0 0.00 0.00 0.00 99 1017.2
20260504080626 42 180 0.0 0.0 0.00 0.00 0.00 99 1017.2